CAPE
0 0 0 0 0 0 0 0 0 2 0 0 3 15 91 64 158 199 218 311 607 608 566 604 1037 461 234 57 1 2 1 3 3 5 7 8 8 7 8 8 11 11 9 7 6 4 4 3 2
0 1 0 0 0 0 0 0 0 0 0 0 0 3 0 142 230 224 144 267 252 237 79 147 530 121 18 5 3 2 1 3 4 7 11 12 10 9 8 11 13 10 11 8 5 4 3 1 1
5 0 0 0 0 0 0 0 0 0 0 0 0 0 0 316 360 279 125 107 0 0 13 177 240 25 10 4 3 0 4 4 7 7 7 6 7 9 10 11 12 11 8 5 4 3 1 0 0
20 0 0 0 0 0 0 0 0 0 0 0 0 0 0 0 220 292 23 0 0 1 19 145 113 15 8 2 3 3 4 4 7 6 4 5 5 8 7 7 5 4 4 2 0 0 0 0 0
0 0 0 0 0 0 0 0 0 0 0 0 0 0 0 19 270 185 3 0 0 0 0 2 65 15 7 4 2 3 3 4 4 2 1 1 2 5 8 5 2 1 0 0 0 0 0 0 0
19 16 0 0 0 0 0 0 0 0 0 0 0 0 0 0 354 315 6 0 0 0 0 0 28 37 21 10 3 3 2 1 0 0 0 0 0 0 2 2 0 0 0 0 0 0 0 0 0
28 30 0 0 0 0 0 0 0 0 0 0 0 0 0 0 188 0 0 0 0 0 0 0 0 17 21 15 7 0 0 0 0 0 0 0 0 0 0 0 0 0 0 0 0 0 0 0 0
0 14 0 0 0 0 0 0 0 0 0 0 0 0 0 0 0 0 0 0 0 0 0 0 0 0 0 0 0 0 0 0 0 0 0 0 0 0 0 0 0 0 0 0 1 0 0 0 0
0 2 8 1 0 0 0 0 0 0 0 0 0 0 0 0 0 0 0 0 0 0 0 0 0 0 0 0 0 0 0 0 0 0 0 0 0 0 0 0 0 0 0 0 0 0 0 0 0
21 34 2 0 0 0 0 0 0 0 0 0 0 0 0 0 0 0 0 0 0 0 0 0 0 0 0 0 0 0 0 0 0 0 0 0 0 0 0 0 0 0 0 0 0 0 0 0 0
13 43 4 0 0 0 0 0 0 0 0 0 0 0 0 0 0 0 0 0 0 0 0 0 0 0 0 0 0 0 0 0 0 0 0 0 0 0 0 0 0 0 0 0 0 0 0 0 0
15 4 0 1 0 0 0 0 0 0 0 0 0 0 0 0 0 0 0 0 0 0 0 0 0 0 0 0 0 0 0 0 0 0 0 0 0 0 0 0 0 0 0 0 0 0 0 0 0
72 41 0 0 0 0 2 0 0 0 0 0 0 0 0 0 0 0 0 0 0 0 0 0 0 0 0 0 0 0 0 0 0 0 0 0 0 0 0 0 0 0 0 0 0 0 0 0 0
30 50 57 8 0 3 0 0 0 0 0 0 0 0 0 0 0 0 0 0 0 0 0 0 0 0 0 0 0 0 0 0 0 0 0 0 0 0 0 0 0 0 0 0 0 0 0 0 0
0 3 1 0 45 10 9 0 0 0 0 0 0 0 0 0 0 0 0 0 0 0 0 0 0 0 0 0 0 0 0 0 0 0 0 0 0 0 0 0 0 0 0 0 0 0 0 0 0
25 64 55 5 0 0 11 0 0 0 0 0 0 0 0 0 0 0 0 0 0 0 0 0 0 0 0 0 0 0 0 0 0 0 0 0 0 0 0 0 0 0 0 0 0 0 0 0 0
6 30 36 33 0 0 1 0 0 0 0 0 0 0 0 0 0 0 0 0 0 0 0 0 0 0 0 0 0 0 0 0 0 0 0 0 0 0 0 0 0 0 0 0 0 0 0 0 0
0 0 0 2 1 0 0 0 0 0 0 0 0 0 0 0 0 0 0 0 0 0 0 0 0 0 0 0 0 0 0 0 0 0 0 0 0 0 0 0 0 0 0 0 0 0 0 0 0
0 0 0 11 0 0 0 0 0 0 0 0 0 0 0 0 0 0 0 0 0 0 0 0 0 0 0 0 0 0 0 0 0 0 0 0 0 0 0 0 0 0 0 0 0 0 0 0 0
0 0 0 0 0 0 0 0 0 0 0 0 0 0 0 0 0 0 0 0 0 0 0 0 0 0 0 0 0 0 0 0 0 0 0 0 0 0 0 0 0 0 0 0 0 0 0 0 0
0 0 0 0 0 10 0 0 0 0 0 0 0 0 0 0 0 0 0 0 0 0 0 0 0 0 0 0 0 0 0 0 0 0 0 0 0 0 0 0 0 0 0 0 0 0 0 0 0
0 0 0 1 0 0 0 0 0 0 0 0 0 0 0 0 0 0 0 0 0 0 0 0 0 0 0 0 0 0 0 0 0 0 0 0 0 0 0 0 0 0 0 0 0 0 0 0 0
0 0 0 0 0 0 0 0 0 0 0 0 0 0 0 0 0 0 0 0 0 0 0 0 0 0 0 0 0 0 0 0 0 0 0 0 0 0 0 0 0 0 0 0 0 0 0 0 0
0 0 0 0 1 0 0 0 0 0 0 0 0 0 0 0 0 0 0 0 0 0 0 0 0 0 0 0 0 0 0 0 0 0 0 0 0 0 0 0 0 0 0 0 0 0 0 0 0
6 0 0 0 0 0 0 0 0 0 0 0 0 0 0 0 0 0 0 0 0 0 0 0 0 0 0 0 0 0 0 0 0 0 0 0 0 0 0 0 0 0 0 0 0 0 0 0 0
0 0 1 0 0 0 0 0 0 0 0 0 0 0 0 0 0 0 0 0 0 0 0 0 0 0 0 0 0 0 0 0 0 0 0 0 0 0 0 0 0 0 0 0 0 0 0 0 0
0 0 0 0 0 0 0 0 0 0 0 0 0 0 0 0 0 0 0 0 0 0 0 0 0 0 0 0 0 0 0 0 0 0 0 0 0 0 0 0 0 0 0 0 0 0 0 0 0
0 0 0 0 0 0 0 0 0 0 0 0 0 0 0 0 0 0 0 0 0 0 0 0 0 0 0 0 0 0 0 0 0 0 0 0 0 0 0 0 0 0 0 0 0 0 0 0 0
0 0 0 0 0 0 0 0 0 0 0 0 0 0 0 0 0 0 0 0 0 0 0 0 0 0 0 0 0 0 0 0 0 0 0 0 0 0 0 0 0 0 0 0 0 0 0 0 0
0 0 0 0 0 0 0 0 0 0 0 0 0 0 0 0 0 0 0 0 0 0 0 0 0 0 0 0 0 0 0 0 0 0 0 0 0 0 0 0 0 0 0 0 0 0 0 0 0
CIN
0 0 0 0 0 0 0 0 0 -45 0 0 -75 -291 -329 -424 -267 -193 -207 -151 -84 -69 -43 -33 -2 -53 -135 -259 0 0 0 0 0 0 0 0 0 0 0 0 0 0 0 0 0 0 0 0 0
0 -184 0 0 0 0 0 0 0 0 0 0 0 -282 0 -279 -264 -242 -262 -173 -217 -219 -279 -170 -52 -214 -372 0 0 0 0 0 0 0 0 0 0 0 0 0 0 0 0 0 0 0 0 0 0
-196 0 0 0 0 0 0 0 0 0 0 0 0 0 0 -204 -163 -195 -297 -312 0 -80 -437 -159 -130 -377 0 0 0 0 0 0 0 0 0 0 0 0 0 0 0 0 0 0 0 0 0 0 0
-209 0 0 0 0 0 0 0 0 0 0 0 0 0 0 0 -198 -181 -518 0 0 -50 -439 -185 -202 -173 0 0 0 0 0 0 0 0 0 0 0 0 0 0 0 0 0 0 0 0 0 0 0
0 0 0 0 0 0 0 0 0 0 0 0 0 0 0 -60 -144 -190 -174 0 0 0 -17 -337 -263 -132 0 0 0 0 0 0 0 0 0 0 0 0 0 0 0 0 0 0 0 0 0 0 0
-11 -9 0 0 0 0 0 0 0 0 0 0 0 0 0 0 -105 -95 -145 0 0 0 0 0 -385 -252 0 0 0 0 0 0 0 0 0 0 0 0 0 0 0 0 0 0 0 0 0 0 0
-23 -3 0 0 0 0 0 0 0 0 0 0 0 0 0 0 -186 0 0 0 0 0 0 0 -1 -2 -1 0 0 0 0 0 0 0 0 0 0 0 0 0 0 0 0 0 0 0 0 0 0
0 -11 -1 0 0 0 0 0 0 0 0 0 0 0 0 0 0 0 0 0 0 0 0 0 0 0 0 0 0 0 0 0 0 0 0 0 0 0 0 0 0 0 0 0 0 0 0 0 0
0 -11 -2 -1 0 0 0 0 0 0 0 0 0 0 0 0 0 0 0 0 0 0 0 0 0 0 0 0 0 0 0 0 0 0 0 0 0 0 0 0 0 0 0 0 0 0 0 0 0
-20 -6 -2 0 0 0 0 0 0 0 0 0 0 0 0 0 0 0 0 0 0 0 0 0 0 0 0 0 0 0 0 0 0 0 0 0 0 0 0 0 0 0 0 0 0 0 0 0 0
-21 -2 -60 -2 0 0 0 0 0 0 0 0 0 0 0 0 0 0 0 0 0 0 0 0 0 0 0 0 0 0 0 0 0 0 0 0 0 0 0 0 0 0 0 0 0 0 0 0 0
-11 -2 0 -31 0 0 0 0 0 0 0 0 0 0 0 0 0 0 0 0 0 0 0 0 0 0 0 0 0 0 0 0 0 0 0 0 0 0 0 0 0 0 0 0 0 0 0 0 0
-5 -11 -14 0 0 0 0 0 0 0 0 0 0 0 0 0 0 0 0 0 0 0 0 0 0 0 0 0 0 0 0 0 0 0 0 0 0 0 0 0 0 0 0 0 0 0 0 0 0
-27 -26 -45 -7 0 -5 0 0 0 0 0 0 0 0 0 0 0 0 0 0 0 0 0 0 0 0 0 0 0 0 0 0 0 0 0 0 0 0 0 0 0 0 0 0 0 0 0 0 0
0 -13 -24 -6 -31 -20 -27 0 0 0 0 0 0 0 0 0 0 0 0 0 0 0 0 0 0 0 0 0 0 0 0 0 0 0 0 0 0 0 0 0 0 0 0 0 0 0 0 0 0
-17 -4 -1 -5 0 0 -23 0 0 0 0 0 0 0 0 0 0 0 0 0 0 0 0 0 0 0 0 0 0 0 0 0 0 0 0 0 0 0 0 0 0 0 0 0 0 0 0 0 0
-20 -4 -1 -4 0 0 -1 0 0 0 0 0 0 0 0 0 0 0 0 0 0 0 0 0 0 0 0 0 0 0 0 0 0 0 0 0 0 0 0 0 0 0 0 0 0 0 0 0 0
0 0 0 -2 0 0 0 0 0 0 0 0 0 0 0 0 0 0 0 0 0 0 0 0 0 0 0 0 0 0 0 0 0 0 0 0 0 0 0 0 0 0 0 0 0 0 0 0 0
0 0 0 -24 0 0 0 0 0 0 0 0 0 0 0 0 0 0 0 0 0 0 0 0 0 0 0 0 0 0 0 0 0 0 0 0 0 0 0 0 0 0 0 0 0 0 0 0 0
0 0 0 0 0 0 0 0 0 0 0 0 0 0 0 0 0 0 0 0 0 0 0 0 0 0 0 0 0 0 0 0 0 0 0 0 0 0 0 0 0 0 0 0 0 0 0 0 0
0 0 0 0 0 -21 0 0 0 0 0 0 0 0 0 0 0 0 0 0 0 0 0 0 0 0 0 0 0 0 0 0 0 0 0 0 0 0 0 0 0 0 0 0 0 0 0 0 0
0 0 0 -52 0 0 0 0 0 0 0 0 0 0 0 0 0 0 0 0 0 0 0 0 0 0 0 0 0 0 0 0 0 0 0 0 0 0 0 0 0 0 0 0 0 0 0 0 0
0 0 0 0 0 0 0 0 0 0 0 0 0 0 0 0 0 0 0 0 0 0 0 0 0 0 0 0 0 0 0 0 0 0 0 0 0 0 0 0 0 0 0 0 0 0 0 0 0
-3 0 0 0 0 0 0 0 0 0 0 0 0 0 0 0 0 0 0 0 0 0 0 0 0 0 0 0 0 0 0 0 0 0 0 0 0 0 0 0 0 0 0 0 0 0 0 0 0
-28 0 0 0 0 0 0 0 0 0 0 0 0 0 0 0 0 0 0 0 0 0 0 0 0 0 0 0 0 0 0 0 0 0 0 0 0 0 0 0 0 0 0 0 0 0 0 0 0
0 0 0 0 0 0 0 0 0 0 0 0 0 0 0 0 0 0 0 0 0 0 0 0 0 0 0 0 0 0 0 0 0 0 0 0 0 0 0 0 0 0 0 0 0 0 0 0 0
0 0 0 0 0 0 0 0 0 0 0 0 0 0 0 0 0 0 0 0 0 0 0 0 0 0 0 0 0 0 0 0 0 0 0 0 0 0 0 0 0 0 0 0 0 0 0 0 0
0 0 0 0 0 0 0 0 0 0 0 0 0 0 0 0 0 0 0 0 0 0 0 0 0 0 0 0 0 0 0 0 0 0 0 0 0 0 0 0 0 0 0 0 0 0 0 0 0
0 0 0 0 0 0 0 0 0 0 0 0 0 0 0 0 0 0 0 0 0 0 0 0 0 0 0 0 0 0 0 0 0 0 0 0 0 0 0 0 0 0 0 0 0 0 0 0 0
0 0 0 0 0 0 0 0 0 0 0 0 0 0 0 0 0 0 0 0 0 0 0 0 0 0 0 0 0 0 0 0 0 0 0 0 0 0 0 0 0 0 0 0 0 0 0 0 0
Wind_Speed
10 12 5 5 3 4 4 10 3 4 4 3 4 14 11 4 3 5 9 16 18 15 12 11 15 17 16 16 16 17 16 17 16 17 17 17 17 17 17 16 17 17 17 16 16 16 16 16 15
7 8 5 1 3 2 6 8 6 6 8 7 13 8 7 4 3 15 9 16 17 16 11 10 15 16 17 16 17 17 16 17 17 17 17 17 17 17 17 17 17 17 16 16 16 16 16 16 16
5 3 1 3 4 6 6 3 8 3 4 5 7 8 6 4 5 7 12 18 16 15 12 12 16 16 17 17 17 17 17 17 17 17 16 16 17 17 17 17 16 16 16 16 15 15 16 16 16
2 3 4 2 9 8 6 3 5 7 5 10 8 9 5 3 4 10 19 19 16 14 10 15 15 16 17 17 17 17 17 17 17 16 16 16 16 16 16 16 15 15 15 15 15 15 15 16 16
2 1 3 4 8 9 5 3 6 7 7 7 5 4 4 3 8 16 18 16 18 12 10 11 15 17 17 17 17 17 17 17 16 16 15 15 15 15 14 15 15 15 15 16 16 16 15 15 16
3 3 3 7 6 10 4 10 7 4 5 8 9 7 3 3 13 9 17 16 16 15 10 10 13 15 16 17 17 17 16 16 15 15 14 14 14 14 13 13 14 14 15 15 16 16 15 14 14
2 4 3 4 6 10 5 8 10 8 7 5 13 6 4 4 9 8 16 17 14 14 12 7 7 11 15 16 15 16 15 14 13 13 13 14 13 13 13 12 12 12 14 14 16 16 17 18 13
2 3 4 5 5 7 7 5 4 8 5 8 6 8 7 6 9 10 13 13 14 12 12 9 7 7 7 8 14 13 13 12 11 11 10 8 10 11 11 9 11 11 11 14 16 17 18 18 18
1 3 15 6 10 10 9 7 6 3 8 6 3 8 12 10 10 9 8 8 9 9 11 10 9 8 7 7 7 10 11 10 9 9 9 7 4 5 6 6 7 11 13 10 16 17 16 15 14
4 7 10 16 12 7 12 6 5 4 4 6 7 10 17 12 10 10 9 7 6 9 8 11 10 10 7 6 6 6 5 3 3 3 5 3 5 3 5 6 10 12 14 14 14 14 13 9 5
6 5 5 15 11 9 14 16 9 6 1 6 12 15 12 11 9 10 8 8 8 6 7 12 12 10 8 6 4 3 2 3 3 6 4 4 4 4 4 4 4 5 8 4 6 6 5 7 5
4 7 12 15 14 12 12 14 15 7 2 5 19 19 12 14 12 11 10 8 9 7 8 10 12 10 7 5 4 5 4 4 4 5 7 5 4 5 4 4 5 5 4 6 5 4 6 7 7
11 4 13 16 18 12 16 13 8 16 7 10 16 16 14 10 10 7 9 9 9 8 7 8 8 8 7 6 4 5 5 5 5 5 6 5 5 5 4 5 4 4 5 5 5 5 5 6 8
4 12 6 15 20 21 17 19 9 11 3 12 17 13 14 14 10 8 12 10 8 8 7 8 8 7 7 6 6 5 5 5 5 5 5 6 5 5 5 5 5 5 5 5 5 5 5 5 5
6 9 3 4 12 11 17 24 22 15 7 13 14 13 13 12 11 12 11 11 11 7 7 8 9 8 8 8 7 6 5 6 5 5 6 7 6 6 6 5 5 4 5 7 6 6 5 6 8
5 5 9 9 11 6 20 26 26 10 6 9 12 13 14 13 13 10 10 10 9 8 9 7 7 8 8 8 6 6 6 5 5 5 5 7 6 7 6 5 5 4 5 5 5 5 5 5 5
5 5 9 7 20 9 17 3 26 21 13 14 12 13 13 12 10 10 11 10 11 9 9 8 8 8 9 7 6 6 8 6 5 5 5 6 7 7 6 5 4 6 5 5 4 5 4 4 5
12 10 7 11 14 13 19 11 9 23 14 15 13 12 12 14 14 13 12 11 11 9 8 8 7 8 8 6 6 5 6 5 5 5 5 7 5 6 6 5 6 5 5 5 4 5 4 3 4
4 2 7 6 12 13 19 20 10 12 13 10 13 14 14 15 8 12 13 12 10 8 9 8 9 8 9 6 6 5 5 4 4 5 7 7 6 6 6 4 5 5 5 4 5 3 4 4 5
9 6 7 4 9 16 15 21 20 15 17 19 19 18 17 13 12 14 14 12 11 12 11 8 9 9 7 6 4 4 5 4 4 4 5 6 6 6 6 5 5 5 4 6 5 5 3 2 5
14 13 7 5 3 12 9 13 13 20 18 11 17 24 22 24 19 17 17 14 12 12 12 10 9 9 8 7 7 5 6 4 3 3 3 3 6 6 6 6 5 5 4 3 3 4 5 3 3
16 11 11 8 6 6 10 6 18 25 19 17 18 19 23 23 18 20 19 15 15 11 9 10 9 8 7 9 10 12 6 5 3 4 3 4 6 6 6 6 5 5 3 5 3 4 2 3 4
8 4 9 10 13 7 7 3 8 21 25 25 25 21 24 25 24 22 20 18 14 11 10 9 8 8 9 9 11 7 6 4 4 4 7 5 4 5 5 5 5 4 3 3 4 4 4 2 1
9 5 9 5 4 5 14 13 7 14 31 22 21 20 23 24 23 21 19 17 12 10 9 9 10 7 8 9 8 9 11 8 6 5 5 4 3 3 4 5 4 3 3 2 2 2 3 3 3
6 11 3 4 3 9 9 10 17 4 13 19 23 23 22 24 23 22 21 18 15 14 12 10 11 7 7 9 9 10 10 9 9 7 5 6 3 2 2 2 2 1 0 2 2 2 3 4 3
18 12 7 8 8 5 6 12 14 9 5 9 17 19 20 22 22 23 22 18 17 16 14 12 11 8 9 10 9 8 8 6 5 6 5 4 3 3 2 1 0 2 2 3 3 2 3 4 4
9 11 9 4 3 2 6 5 6 1 3 4 18 19 23 23 23 23 19 19 18 16 14 14 12 9 10 10 9 8 8 8 7 7 6 4 3 2 2 1 2 3 4 4 4 3 5 4 5
17 14 6 3 3 4 5 4 7 7 10 8 16 20 20 20 22 20 19 19 16 15 12 12 12 12 10 10 9 7 8 7 7 6 6 5 3 1 1 3 3 4 5 5 4 4 5 5 4
5 14 5 6 4 2 1 7 3 9 8 11 12 16 21 22 20 19 18 17 17 14 14 13 12 13 11 10 8 8 7 7 6 6 5 4 2 1 2 3 4 5 5 6 5 5 6 5 6
5 5 16 9 7 9 5 8 4 7 9 9 14 16 17 20 19 18 18 17 16 15 14 13 11 11 10 10 9 8 7 7 6 5 4 3 1 1 3 4 5 5 6 6 5 6 6 6 7
Wind_Direction
344 331 316 30 52 77 249 253 202 323 48 336 103 101 107 42 70 146 118 127 123 117 112 109 109 106 104 104 100 96 94 90 87 85 82 78 75 72 69 67 64 61 58 55 53 51 49 44 38
324 339 20 66 121 200 257 253 229 205 157 132 80 106 65 85 62 119 114 129 127 123 112 113 112 111 111 108 105 101 98 94 90 87 83 80 76 72 69 66 63 60 58 55 52 49 45 42 36
306 49 357 158 201 198 233 276 167 143 156 99 99 50 88 124 115 136 139 130 114 111 117 117 116 117 115 112 107 105 101 97 94 89 84 80 75 71 68 65 62 59 58 55 51 47 41 36 30
309 360 315 187 242 262 263 111 156 122 54 55 106 71 65 239 123 126 117 115 108 111 111 116 120 120 117 114 111 108 104 100 96 90 85 81 76 72 69 65 63 59 54 50 46 42 39 34 28
154 148 240 225 246 263 288 203 187 131 129 118 98 121 66 3 125 126 123 122 119 112 111 116 124 124 120 116 113 109 105 102 98 92 85 81 78 74 69 65 62 57 51 45 40 36 36 32 28
135 201 223 225 247 257 238 207 150 112 127 135 81 98 139 176 131 153 126 120 121 121 116 116 124 124 122 119 115 110 107 103 99 93 86 82 78 73 69 64 58 52 47 41 36 34 30 21 17
220 157 237 241 243 258 271 164 156 151 125 121 139 92 181 175 150 101 119 122 125 121 116 110 113 122 119 116 114 113 112 108 106 103 97 92 83 75 71 63 56 51 44 40 34 29 30 30 18
134 189 201 294 274 241 292 321 328 120 147 123 129 153 188 192 119 110 110 123 130 127 129 128 117 104 102 112 119 121 121 123 124 115 107 104 92 88 79 68 53 47 40 34 36 34 29 24 24
56 184 208 255 359 318 333 358 348 29 91 64 38 152 152 145 116 96 94 91 105 133 139 141 132 123 118 122 138 135 141 143 139 130 137 128 134 106 85 83 51 30 41 27 38 35 27 22 13
194 221 214 157 272 315 314 340 322 82 72 54 62 79 128 123 121 123 125 122 121 133 148 150 140 139 145 147 148 144 144 134 136 147 140 137 105 101 91 55 48 37 38 34 32 27 24 20 9
197 212 115 179 246 287 327 353 325 103 45 176 155 141 140 132 131 135 140 147 155 152 133 148 146 149 148 152 163 163 144 130 114 86 121 82 67 62 65 60 42 37 30 25 26 16 15 14 12
232 208 170 167 172 283 288 323 333 359 295 155 158 152 146 151 157 156 157 156 150 139 141 143 148 151 158 163 164 142 124 90 72 62 72 77 66 58 60 65 52 43 21 21 22 15 13 13 6
237 246 182 164 178 217 272 286 332 299 297 126 142 149 153 151 165 160 148 141 142 136 135 149 146 143 161 131 139 114 110 95 89 68 67 76 72 69 68 57 55 45 37 31 25 23 21 18 5
241 235 213 191 179 194 245 270 360 297 29 135 149 160 162 162 161 139 147 143 139 144 141 144 131 144 130 129 123 115 107 102 85 75 77 71 83 88 74 63 53 41 39 30 32 32 26 14 9
235 244 95 195 203 203 211 280 255 270 236 162 163 166 167 170 152 158 152 146 149 154 148 141 133 132 125 127 120 120 115 103 95 86 75 71 74 80 81 65 54 48 38 40 31 20 26 23 7
297 188 210 166 163 167 167 221 249 244 179 194 168 174 174 172 160 155 153 145 151 149 149 148 135 129 124 121 116 109 107 105 102 88 78 72 78 84 71 66 57 54 45 41 39 26 17 15 8
268 216 195 168 184 153 191 179 203 235 236 192 177 178 175 166 158 161 160 154 156 153 147 144 137 141 129 126 109 108 106 99 100 90 85 76 71 76 80 72 62 62 51 41 33 21 34 10 352
200 201 206 189 186 175 194 243 233 202 201 184 176 177 176 171 174 164 158 155 152 147 141 141 135 138 124 115 103 87 89 82 88 91 84 77 74 81 83 68 63 64 62 43 38 38 8 6 343
317 241 225 215 174 175 194 214 224 204 168 185 187 179 180 174 172 160 155 155 147 148 143 149 136 140 129 129 122 111 115 106 79 81 90 82 80 80 84 74 66 62 65 54 38 13 11 348 348
257 270 284 267 179 192 197 213 215 219 211 188 188 183 179 167 163 162 157 158 159 161 154 149 149 144 137 132 125 119 124 96 109 99 91 93 87 87 88 85 69 61 62 41 34 42 2 340 12
219 233 233 250 114 207 181 246 220 231 229 210 200 184 179 175 167 168 164 163 158 163 162 160 153 148 143 129 111 89 86 72 77 83 98 102 97 88 86 80 77 61 67 52 36 37 32 353 329
214 213 251 244 147 213 203 250 213 223 225 213 208 193 181 175 168 166 166 164 165 167 158 153 152 146 138 135 136 142 136 141 165 147 128 120 113 97 88 81 78 67 65 47 19 31 32 24 342
222 155 292 252 207 340 191 271 268 196 220 217 205 200 181 174 168 168 169 164 165 158 162 156 145 136 141 138 142 132 126 135 139 125 128 128 121 118 99 88 72 63 59 41 32 15 9 5 322
140 132 247 109 89 224 224 196 235 194 205 204 201 193 179 173 168 165 162 156 158 153 147 144 139 144 143 137 136 140 142 144 133 133 134 142 125 110 89 93 80 67 60 32 7 359 357 323 311
124 118 221 95 178 235 204 205 245 260 200 198 184 184 174 168 164 162 159 161 156 155 149 142 139 145 137 131 136 139 144 138 139 145 135 134 127 120 109 105 75 47 322 317 315 312 298 287 286
169 168 175 175 190 227 167 222 232 230 228 210 189 171 158 164 166 163 160 157 155 151 148 140 140 136 132 131 130 129 129 124 125 129 123 123 126 151 149 141 314 310 307 301 294 278 277 273 273
171 201 195 21 240 135 207 256 295 297 134 143 158 155 163 164 165 160 152 154 152 149 147 144 141 136 131 129 122 115 119 121 125 115 116 124 125 154 159 275 305 304 299 294 291 278 287 284 277
173 165 176 138 229 205 244 219 221 206 206 181 167 166 160 156 157 151 152 151 148 144 138 138 142 139 136 124 117 119 120 117 119 118 125 126 129 110 328 317 317 312 307 300 299 290 287 286 280
163 171 158 155 221 199 223 254 230 229 202 169 156 158 153 150 150 147 147 146 143 135 141 140 136 136 130 124 119 118 120 119 118 120 123 121 117 24 328 321 318 315 311 306 308 300 288 283 280
247 220 185 169 197 219 149 284 342 280 185 148 139 141 142 143 143 140 141 139 140 138 140 138 135 131 129 126 120 121 124 121 117 118 117 109 80 339 316 319 322 319 312 309 306 295 295 285 283